DW2505 Weather Reports


Display with metric or nautical units.
time (UTC)temp
F
wind
direction
speed
MPH
gust
MPH
rain 1hr
in
rain 24hr
in
rain mn
in
humidity
%
barometer
mb
20260505094511 36 185 0.0 2.0 0.00 0.11 0.00 97 1005.2
20260505093611 36 181 1.0 3.0 0.00 0.11 0.00 97 1005.2
20260505092710 36 181 1.0 3.0 0.00 0.11 0.00 97 1005.5
20260505091810 36 0 0.0 0.0 0.00 0.11 0.00 97 1005.4
20260505090010 36 181 0.0 2.0 0.00 0.11 0.00 97 1005.4
20260505085110 36 0 0.0 0.0 0.00 0.11 0.00 97 1005.5
20260505084211 36 0 0.0 0.0 0.00 0.11 0.00 97 1005.7
20260505083311 36 225 0.0 1.0 0.00 0.11 0.00 97 1005.9
20260505082410 36 225 0.0 1.0 0.00 0.11 0.00 97 1006.0
20260505081510 36 225 0.0 1.0 0.00 0.11 0.00 97 1006.4
20260505080610 37 225 0.0 1.0 0.00 0.11 0.00 97 1006.4
20260505074810 37 222 0.0 2.0 0.00 0.11 0.00 97 1006.4
20260505073910 37 225 0.0 3.0 0.00 0.11 0.00 97 1006.4
20260505073010 38 225 1.0 1.0 0.00 0.11 0.00 99 1006.6
20260505072110 37 225 0.0 1.0 0.00 0.11 0.00 99 1006.7
20260505071210 37 0 0.0 0.0 0.00 0.11 0.00 99 1006.8
20260505065410 37 0 0.0 0.0 0.00 0.11 0.00 99 1006.4
20260505064510 37 0 0.0 0.0 0.00 0.11 0.00 97 1006.7
20260505063610 38 181 0.0 2.0 0.00 0.11 0.00 99 1006.6
20260505061810 37 181 0.0 1.0 0.00 0.11 0.00 97 1006.7
20260505060910 37 181 0.0 1.0 0.01 0.11 0.00 97 1006.8
20260505055110 37 181 0.0 1.0 0.01 0.11 0.11 99 1006.8
20260505054210 37 225 0.0 1.0 0.01 0.11 0.11 97 1007.0
20260505053310 37 225 0.0 3.0 0.01 0.11 0.11 97 1007.1
20260505052410 37 225 1.0 1.0 0.01 0.11 0.11 97 1006.9
20260505051510 38 193 0.0 1.0 0.00 0.09 0.09 99 1007.1
20260505041210 38 225 0.0 1.0 0.00 0.09 0.09 99 1006.8
20260505035410 38 0 0.0 0.0 0.00 0.09 0.09 99 1006.9
20260505034510 38 0 0.0 0.0 0.00 0.09 0.09 99 1006.6
20260505033610 38 208 0.0 2.0 0.00 0.09 0.09 99 1006.4
20260505032710 38 216 0.0 1.0 0.00 0.09 0.09 99 1006.5
20260505031810 38 239 0.0 3.0 0.00 0.09 0.09 99 1006.7
20260505030910 38 225 1.0 2.0 0.00 0.09 0.09 99 1007.2
20260505030012 38 225 0.0 2.0 0.00 0.09 0.09 99 1007.0
20260505025110 39 225 0.0 2.0 0.00 0.09 0.09 99 1006.7
20260505024210 39 225 0.0 1.0 0.00 0.09 0.09 99 1006.7
20260505021510 39 0 0.0 0.0 0.00 0.09 0.09 99 1006.8
20260505020610 39 0 0.0 0.0 0.00 0.09 0.09 99 1006.7
20260505015710 39 225 0.0 1.0 0.01 0.09 0.09 99 1006.8
20260505013010 39 225 1.0 1.0 0.09 0.09 0.09 99 1006.8
20260505012109 39 225 0.0 3.0 0.09 0.09 0.09 96 1006.8
20260505011210 40 225 0.0 3.0 0.09 0.09 0.09 95 1007.1
20260505005409 40 175 1.0 5.0 0.06 0.06 0.05 87 1006.8
20260505004510 41 225 1.0 3.0 0.03 0.03 0.04 81 1007.2
20260505003610 44 201 1.0 6.0 0.00 0.00 0.00 67 1007.0
20260505002710 46 206 2.0 6.0 0.00 0.00 0.00 58 1006.3
20260505001810 46 306 4.0 7.0 0.00 0.00 0.00 56 1006.0
20260505000910 49 229 3.0 5.0 0.00 0.00 0.00 43 1005.6
20260505000009 52 230 3.0 6.0 0.00 0.00 0.00 34 1005.3
20260504235110 52 243 2.0 6.0 0.00 0.00 0.00 33 1005.4
20260504234210 54 204 1.0 4.0 0.00 0.00 0.00 30 1005.1
20260504233309 54 192 1.0 5.0 0.00 0.00 0.00 30 1005.5
20260504232409 54 228 1.0 5.0 0.00 0.00 0.00 29 1005.4
20260504230610 56 208 1.0 3.0 0.00 0.00 0.00 29 1005.6
20260504225709 56 215 2.0 4.0 0.00 0.00 0.00 31 1005.6
20260504224810 55 233 2.0 6.0 0.00 0.00 0.00 26 1005.5
20260504222110 54 235 1.0 6.0 0.00 0.00 0.00 31 1005.7
20260504221210 54 210 1.0 6.0 0.00 0.00 0.00 31 1005.7
20260504220311 57 206 2.0 5.0 0.00 0.00 0.00 25 1005.8
20260504215410 57 181 1.0 7.0 0.00 0.00 0.00 24 1005.8
20260504214510 57 186 4.0 7.0 0.00 0.00 0.00 23 1005.7
20260504213610 60 186 2.0 6.0 0.00 0.00 0.00 21 1005.2
20260504211810 56 201 3.0 5.0 0.00 0.00 0.00 23 1005.9
20260504210910 56 182 2.0 5.0 0.00 0.00 0.00 24 1005.7
20260504205110 57 222 2.0 9.0 0.00 0.00 0.00 20 1005.6
20260504204209 58 224 2.0 7.0 0.00 0.00 0.00 19 1005.4
20260504203309 59 213 3.0 7.0 0.00 0.00 0.00 18 1005.6
20260504202409 62 217 3.0 5.0 0.00 0.00 0.00 19 1005.6
20260504200609 59 227 2.0 4.0 0.00 0.00 0.00 21 1005.6
20260504194809 58 224 1.0 5.0 0.00 0.00 0.00 22 1006.1
20260504193910 57 179 1.0 7.0 0.00 0.00 0.00 28 1006.3
20260504192110 53 232 3.0 15.0 0.00 0.00 0.00 25 1006.7
20260504191210 56 218 3.0 7.0 0.00 0.00 0.00 22 1006.2
20260504190309 56 222 3.0 8.0 0.00 0.00 0.00 22 1006.2
20260504185410 56 225 7.0 11.0 0.00 0.00 0.00 22 1006.2
20260504183609 57 215 3.0 8.0 0.00 0.00 0.00 20 1006.1
20260504182709 58 235 1.0 9.0 0.00 0.00 0.00 21 1006.4
20260504181810 55 222 3.0 11.0 0.00 0.00 0.00 18 1006.5
20260504180910 61 193 1.0 6.0 0.00 0.00 0.00 18 1006.5
20260504180010 59 231 1.0 10.0 0.00 0.00 0.00 19 1006.6
20260504175110 58 229 5.0 11.0 0.00 0.00 0.00 19 1006.8
20260504174209 56 225 4.0 8.0 0.00 0.00 0.00 20 1006.9
20260504173309 59 208 1.0 9.0 0.00 0.00 0.00 20 1006.9
20260504172410 58 229 3.0 11.0 0.00 0.00 0.00 21 1007.1
20260504171509 57 241 3.0 13.0 0.00 0.00 0.00 21 1007.4
20260504170610 58 218 2.0 12.0 0.00 0.00 0.00 21 1007.2
20260504150910 48 211 1.0 11.0 0.00 0.00 0.00 41 1008.1
20260504140610 46 249 0.0 3.0 0.00 0.00 0.00 39 1008.1
20260504130309 45 225 3.0 7.0 0.00 0.00 0.00 36 1007.8
20260504100309 42 211 1.0 3.0 0.00 0.00 0.00 40 1007.4